Weather History for Toledo, OH

Change the Weather History Date:

Monday, April 8, 2013

  Actual Average Record
Temperature  
Mean Temperature 56 °F 47 °F  
Max Temperature 72 °F 57 °F 79 °F (2001)
Min Temperature 39 °F 36 °F 10 °F (1982)
Degree Days  
Heating Degree Days 9 19  
Month to date heating degree days 186 159  
Since 1 July heating degree days 5613 5585  
Cooling Degree Days 0 0  
Month to date cooling degree days 0 0  
Year to date cooling degree days 0 0  
Growing Degree Days 6 (Base 50)    
Moisture  
Dew Point 42 °F    
Average Humidity 63    
Maximum Humidity 79    
Minimum Humidity 47    
Precipitation  
Precipitation 0.03 in 0.11 in 0.99 in (1991)
Month to date precipitation 0.03 0.82  
Year to date precipitation 7.20 7.42  
Snow  
Snow 0.00 in 0.00 in - ()
Month to date snowfall T 0.6  
Since 1 July snowfall 22.1 36.8  
Snow Depth 0.00 in    
Sea Level Pressure  
Sea Level Pressure 29.89 in    
Wind  
Wind Speed 12 mph (SSE)    
Max Wind Speed 31 mph    
Max Gust Speed 40 mph    
Visibility 9 miles    
Events Rain    
T = Trace of Precipitation, MM = Missing Value Source: NWS Daily Summary

Daily Weather History Graph

Daily Weather History Graph

Search for Another Location

Airport:

Trip Planner

Search our weather history database for the weather conditions in past years. The results will help you decide how hot, cold, wet, or windy it might be!

Date:

Astronomy

Apr. 08, 2013 Rise Set
Actual Time 7:06 AM EDT 8:08 PM EDT
Civil Twilight 6:37 AM EDT 8:36 PM EDT
Nautical Twilight 6:04 AM EDT 9:10 PM EDT
Astronomical Twilight 5:28 AM EDT 9:46 PM EDT
Moon 5:56 AM EDT (4/8) 6:41 PM EDT (4/8)
Length of Visible Light 13h 59m
Length of Day
13h 02m
Waning Crescent, 3% of the Moon is Illuminated
Apr 8
Waning Crescent
Apr 10
New
Apr 18
First Quarter
Apr 25
Full
May 2
Last Quarter

Hourly Weather History & Observations

Time (EDT) Temp. Windchill Dew Point Humidity Pressure Visibility Wind Dir Wind Speed Gust Speed Precip Events Conditions
12:52 AM 44.1 °F 37.4 °F 33.1 °F 65% 30.04 in 10.0 mi East 13.8 mph - N/A   Clear
1:52 AM 42.1 °F 37.1 °F 33.1 °F 70% 30.04 in 10.0 mi East 8.1 mph - N/A   Clear
2:52 AM 39.9 °F 35.1 °F 32.0 °F 73% 30.02 in 10.0 mi East 6.9 mph - N/A   Clear
3:52 AM 39.0 °F 32.8 °F 32.0 °F 76% 30.02 in 10.0 mi East 9.2 mph - N/A   Clear
4:52 AM 39.0 °F 32.8 °F 32.0 °F 76% 29.99 in 9.0 mi East 9.2 mph - N/A   Clear
5:52 AM 39.9 °F 33.9 °F 33.1 °F 77% 29.97 in 10.0 mi East 9.2 mph - N/A   Clear
6:52 AM 39.9 °F 33.9 °F 33.1 °F 77% 29.96 in 10.0 mi ESE 9.2 mph - N/A   Clear
7:52 AM 41.0 °F 34.7 °F 34.0 °F 76% 29.96 in 7.0 mi East 10.4 mph - N/A   Clear
8:52 AM 45.0 °F 39.7 °F 35.1 °F 68% 29.95 in 7.0 mi ESE 10.4 mph - N/A   Scattered Clouds
9:52 AM 46.0 °F 41.9 °F 37.0 °F 71% 29.92 in 6.0 mi ESE 8.1 mph - 0.00 in Rain Light Rain
10:52 AM 51.1 °F - 41.0 °F 68% 29.88 in 8.0 mi ESE 8.1 mph - 0.00 in   Overcast
11:52 AM 57.0 °F - 44.1 °F 62% 29.84 in 10.0 mi ESE 5.8 mph - N/A   Overcast
12:52 PM 66.9 °F - 46.0 °F 47% 29.79 in 10.0 mi South 15.0 mph 31.1 mph N/A   Overcast
1:52 PM 61.0 °F - 53.1 °F 75% 29.79 in 10.0 mi SSW 9.2 mph 21.9 mph 0.03 in Rain Light Rain
2:52 PM 64.9 °F - 52.0 °F 63% 29.76 in 10.0 mi SSW 11.5 mph 18.4 mph 0.00 in   Overcast
3:52 PM 68.0 °F - 52.0 °F 56% 29.75 in 10.0 mi SW 17.3 mph 23.0 mph N/A   Mostly Cloudy
4:52 PM 70.0 °F - 51.1 °F 51% 29.74 in 10.0 mi SW 21.9 mph 36.8 mph N/A   Mostly Cloudy
5:52 PM 71.1 °F - 52.0 °F 51% 29.75 in 10.0 mi SSW 20.7 mph 32.2 mph N/A   Mostly Cloudy
6:52 PM 72.0 °F - 50.0 °F 46% 29.77 in 10.0 mi WSW 26.5 mph 33.4 mph N/A   Mostly Cloudy
7:52 PM 69.1 °F - 48.9 °F 49% 29.81 in 10.0 mi West 20.7 mph 28.8 mph N/A   Clear
8:52 PM 62.1 °F - 48.9 °F 62% 29.86 in 10.0 mi WNW 15.0 mph 20.7 mph N/A   Clear
9:52 PM 57.9 °F - 45.0 °F 62% 29.92 in 10.0 mi WNW 12.7 mph - N/A   Clear
10:52 PM 55.9 °F - 43.0 °F 62% 29.94 in 10.0 mi WNW 9.2 mph - N/A   Mostly Cloudy
11:52 PM 53.1 °F - 42.1 °F 66% 29.96 in 10.0 mi WNW 6.9 mph - N/A   Scattered Clouds